Year,Month,Day,Hour,Minute,Value (Times are PST for temperature in C)
2011,09,15,00,00,14.90
2011,09,15,00,01,14.90
2011,09,15,00,02,14.80
2011,09,15,00,03,14.80
2011,09,15,00,04,14.80
2011,09,15,00,05,14.80
2011,09,15,00,06,14.80
2011,09,15,00,07,14.80
2011,09,15,00,08,14.80
2011,09,15,00,09,14.80
2011,09,15,00,10,14.70
2011,09,15,00,11,14.70
2011,09,15,00,12,14.70
2011,09,15,00,13,14.70
2011,09,15,00,14,14.70
2011,09,15,00,15,14.70
2011,09,15,00,16,14.70
2011,09,15,00,17,14.60
2011,09,15,00,18,14.60
2011,09,15,00,19,14.60
2011,09,15,00,20,14.60
2011,09,15,00,21,14.50
2011,09,15,00,22,14.50
2011,09,15,00,23,14.50
2011,09,15,00,24,14.50
2011,09,15,00,25,14.50
2011,09,15,00,26,14.50
2011,09,15,00,27,14.50
2011,09,15,00,28,14.50
2011,09,15,00,29,14.50
2011,09,15,00,30,14.50
2011,09,15,00,31,14.40
2011,09,15,00,32,14.40
2011,09,15,00,33,14.40
2011,09,15,00,34,14.40
2011,09,15,00,35,14.40
2011,09,15,00,36,14.30
2011,09,15,00,37,14.30
2011,09,15,00,38,14.20
2011,09,15,00,39,14.20
2011,09,15,00,40,14.20
2011,09,15,00,41,14.10
2011,09,15,00,42,14.10
2011,09,15,00,43,14.00
2011,09,15,00,44,13.90
2011,09,15,00,45,13.90
2011,09,15,00,46,13.90
2011,09,15,00,47,13.90
2011,09,15,00,48,13.80
2011,09,15,00,49,13.80
2011,09,15,00,50,13.80
2011,09,15,00,51,13.80
2011,09,15,00,52,13.80
2011,09,15,00,53,13.80
2011,09,15,00,54,13.80
2011,09,15,00,55,13.80
2011,09,15,00,56,13.80
2011,09,15,00,57,13.70
2011,09,15,00,58,13.70
2011,09,15,00,59,13.70
2011,09,15,01,00,13.70
2011,09,15,01,01,13.70
2011,09,15,01,02,13.70
2011,09,15,01,03,13.60
2011,09,15,01,04,13.60
2011,09,15,01,05,13.60
2011,09,15,01,06,13.60
2011,09,15,01,07,13.60
2011,09,15,01,08,13.60
2011,09,15,01,09,13.60
2011,09,15,01,10,13.60
2011,09,15,01,11,13.60
2011,09,15,01,12,13.60
2011,09,15,01,13,13.60
2011,09,15,01,14,13.60
2011,09,15,01,15,13.60
2011,09,15,01,16,13.60
2011,09,15,01,17,13.60
2011,09,15,01,18,13.50
2011,09,15,01,19,13.50
2011,09,15,01,20,13.50
2011,09,15,01,21,13.50
2011,09,15,01,22,13.50
2011,09,15,01,23,13.50
2011,09,15,01,24,13.50
2011,09,15,01,25,13.50
2011,09,15,01,26,13.50
2011,09,15,01,27,13.50
2011,09,15,01,28,13.50
2011,09,15,01,29,13.50
2011,09,15,01,30,13.50
2011,09,15,01,31,13.50
2011,09,15,01,32,13.50
2011,09,15,01,33,13.50
2011,09,15,01,34,13.50
2011,09,15,01,35,13.50
2011,09,15,01,36,13.50
2011,09,15,01,37,13.50
2011,09,15,01,38,13.50
2011,09,15,01,39,13.50
2011,09,15,01,40,13.60
2011,09,15,01,41,13.60
2011,09,15,01,42,13.60
2011,09,15,01,43,13.60
2011,09,15,01,44,13.60
2011,09,15,01,45,13.60
2011,09,15,01,46,13.60
2011,09,15,01,47,13.60
2011,09,15,01,48,13.60
2011,09,15,01,49,13.60
2011,09,15,01,50,13.60
2011,09,15,01,51,13.60
2011,09,15,01,52,13.60
2011,09,15,01,53,13.60
2011,09,15,01,54,13.70
2011,09,15,01,55,13.70
2011,09,15,01,56,13.70
2011,09,15,01,57,13.70
2011,09,15,01,58,13.70
2011,09,15,01,59,13.70
2011,09,15,02,00,13.70
2011,09,15,02,01,13.70
2011,09,15,02,02,13.70
2011,09,15,02,03,13.70
2011,09,15,02,04,13.70
2011,09,15,02,05,13.70
2011,09,15,02,06,13.70
2011,09,15,02,07,13.70
2011,09,15,02,08,13.70
2011,09,15,02,09,13.70
2011,09,15,02,10,13.70
2011,09,15,02,11,13.70
2011,09,15,02,12,13.70
2011,09,15,02,13,13.70
2011,09,15,02,14,13.70
2011,09,15,02,15,13.70
2011,09,15,02,16,13.70
2011,09,15,02,17,13.80
2011,09,15,02,18,13.80
2011,09,15,02,19,13.80
2011,09,15,02,20,13.80
2011,09,15,02,21,13.80
2011,09,15,02,22,13.80
2011,09,15,02,23,13.80
2011,09,15,02,24,13.80
2011,09,15,02,25,13.80
2011,09,15,02,26,13.80
2011,09,15,02,27,13.80
2011,09,15,02,28,13.80
2011,09,15,02,29,13.80
2011,09,15,02,30,13.80
2011,09,15,02,31,13.80
2011,09,15,02,32,13.80
2011,09,15,02,33,13.80
2011,09,15,02,34,13.90
2011,09,15,02,35,13.90
2011,09,15,02,36,13.90
2011,09,15,02,37,13.90
2011,09,15,02,38,13.90
2011,09,15,02,39,13.90
2011,09,15,02,40,13.90
2011,09,15,02,41,13.90
2011,09,15,02,42,14.00
2011,09,15,02,43,14.00
2011,09,15,02,44,14.00
2011,09,15,02,45,14.00
2011,09,15,02,46,14.00
2011,09,15,02,47,14.00
2011,09,15,02,48,14.10
2011,09,15,02,49,14.10
2011,09,15,02,50,14.10
2011,09,15,02,51,14.10
2011,09,15,02,52,14.10
2011,09,15,02,53,14.10
2011,09,15,02,54,14.10
2011,09,15,02,55,14.10
2011,09,15,02,56,14.10
2011,09,15,02,57,14.10
2011,09,15,02,58,14.10
2011,09,15,02,59,14.10
2011,09,15,03,00,14.10
2011,09,15,03,01,14.10
2011,09,15,03,02,14.10
2011,09,15,03,03,14.10
2011,09,15,03,04,14.10
2011,09,15,03,05,14.10
2011,09,15,03,06,14.10
2011,09,15,03,07,14.10
2011,09,15,03,08,14.10
2011,09,15,03,09,14.10
2011,09,15,03,10,14.10
2011,09,15,03,11,14.10
2011,09,15,03,12,14.10
2011,09,15,03,13,14.10
2011,09,15,03,14,14.00
2011,09,15,03,15,14.00
2011,09,15,03,16,14.00
2011,09,15,03,17,14.00
2011,09,15,03,18,14.00
2011,09,15,03,19,14.00
2011,09,15,03,20,13.90
2011,09,15,03,21,13.90
2011,09,15,03,22,13.90
2011,09,15,03,23,13.90
2011,09,15,03,24,13.90
2011,09,15,03,25,13.90
2011,09,15,03,26,13.90
2011,09,15,03,27,13.90
2011,09,15,03,28,13.90
2011,09,15,03,29,13.90
2011,09,15,03,30,13.90
2011,09,15,03,31,13.90
2011,09,15,03,32,13.90
2011,09,15,03,33,13.90
2011,09,15,03,34,13.90
2011,09,15,03,35,13.90
2011,09,15,03,36,13.90
2011,09,15,03,37,13.90
2011,09,15,03,38,13.90
2011,09,15,03,39,13.90
2011,09,15,03,40,13.90
2011,09,15,03,41,13.90
2011,09,15,03,42,13.90
2011,09,15,03,43,13.90
2011,09,15,03,44,13.90
2011,09,15,03,45,13.80
2011,09,15,03,46,13.80
2011,09,15,03,47,13.80
2011,09,15,03,48,13.80
2011,09,15,03,49,13.80
2011,09,15,03,50,13.70
2011,09,15,03,51,13.80
2011,09,15,03,52,13.70
2011,09,15,03,53,13.70
2011,09,15,03,54,13.70
2011,09,15,03,55,13.70
2011,09,15,03,56,13.70
2011,09,15,03,57,13.70
2011,09,15,03,58,13.70
2011,09,15,03,59,13.70
2011,09,15,04,00,13.70
2011,09,15,04,01,13.70
2011,09,15,04,02,13.70
2011,09,15,04,03,13.70
2011,09,15,04,04,13.70
2011,09,15,04,05,13.70
2011,09,15,04,06,13.70
2011,09,15,04,07,13.70
2011,09,15,04,08,13.70
2011,09,15,04,09,13.70
2011,09,15,04,10,13.80
2011,09,15,04,11,13.80
2011,09,15,04,12,13.80
2011,09,15,04,13,13.80
2011,09,15,04,14,13.80
2011,09,15,04,15,13.80
2011,09,15,04,16,13.80
2011,09,15,04,17,13.80
2011,09,15,04,18,13.80
2011,09,15,04,19,13.80
2011,09,15,04,20,13.80
2011,09,15,04,21,13.80
2011,09,15,04,22,13.80
2011,09,15,04,23,13.90
2011,09,15,04,24,13.90
2011,09,15,04,25,13.90
2011,09,15,04,26,13.90
2011,09,15,04,27,13.90
2011,09,15,04,28,13.90
2011,09,15,04,29,13.90
2011,09,15,04,30,13.90
2011,09,15,04,31,14.00
2011,09,15,04,32,14.00
2011,09,15,04,33,14.00
2011,09,15,04,34,14.00
2011,09,15,04,35,14.00
2011,09,15,04,36,14.00
2011,09,15,04,37,14.00
2011,09,15,04,38,14.10
2011,09,15,04,39,14.10
2011,09,15,04,40,14.10
2011,09,15,04,41,14.10
2011,09,15,04,42,14.10
2011,09,15,04,43,14.10
2011,09,15,04,44,14.10
2011,09,15,04,45,14.10
2011,09,15,04,46,14.10
2011,09,15,04,47,14.20
2011,09,15,04,48,14.10
2011,09,15,04,49,14.10
2011,09,15,04,50,14.10
2011,09,15,04,51,14.10
2011,09,15,04,52,14.10
2011,09,15,04,53,14.10
2011,09,15,04,54,14.10
2011,09,15,04,55,14.10
2011,09,15,04,56,14.10
2011,09,15,04,57,14.10
2011,09,15,04,58,14.10
2011,09,15,04,59,14.10
2011,09,15,05,00,14.10
2011,09,15,05,01,14.10
2011,09,15,05,02,14.10
2011,09,15,05,03,14.10
2011,09,15,05,04,14.10
2011,09,15,05,05,14.10
2011,09,15,05,06,14.10
2011,09,15,05,07,14.10
2011,09,15,05,08,14.10
2011,09,15,05,09,14.10
2011,09,15,05,10,14.10
2011,09,15,05,11,14.10
2011,09,15,05,12,14.10
2011,09,15,05,13,14.10
2011,09,15,05,14,14.10
2011,09,15,05,15,14.10
2011,09,15,05,16,14.10
2011,09,15,05,17,14.10
2011,09,15,05,18,14.10
2011,09,15,05,19,14.10
2011,09,15,05,20,14.10
2011,09,15,05,21,14.10
2011,09,15,05,22,14.10
2011,09,15,05,23,14.20
2011,09,15,05,24,14.20
2011,09,15,05,25,14.20
2011,09,15,05,26,14.20
2011,09,15,05,27,14.20
2011,09,15,05,28,14.20
2011,09,15,05,29,14.20
2011,09,15,05,30,14.20
2011,09,15,05,31,14.20
2011,09,15,05,32,14.10
2011,09,15,05,33,14.10
2011,09,15,05,34,14.10
2011,09,15,05,35,14.10
2011,09,15,05,36,14.10
2011,09,15,05,37,14.10
2011,09,15,05,38,14.10
2011,09,15,05,39,14.10
2011,09,15,05,40,14.10
2011,09,15,05,41,14.10
2011,09,15,05,42,14.20
2011,09,15,05,43,14.20
2011,09,15,05,44,14.20
2011,09,15,05,45,14.20
2011,09,15,05,46,14.20
2011,09,15,05,47,14.20
2011,09,15,05,48,14.20
2011,09,15,05,49,14.20
2011,09,15,05,50,14.20
2011,09,15,05,51,14.20
2011,09,15,05,52,14.20
2011,09,15,05,53,14.20
2011,09,15,05,54,14.20
2011,09,15,05,55,14.20
2011,09,15,05,56,14.20
2011,09,15,05,57,14.30
2011,09,15,05,58,14.30
2011,09,15,05,59,14.30
2011,09,15,06,00,14.30
2011,09,15,06,01,14.30
2011,09,15,06,02,14.30
2011,09,15,06,03,14.30
2011,09,15,06,04,14.30
2011,09,15,06,05,14.30
2011,09,15,06,06,14.30
2011,09,15,06,07,14.30
2011,09,15,06,08,14.30
2011,09,15,06,09,14.30
2011,09,15,06,10,14.30
2011,09,15,06,11,14.20
2011,09,15,06,12,14.20
2011,09,15,06,13,14.20
2011,09,15,06,14,14.20
2011,09,15,06,15,14.20
2011,09,15,06,16,14.20
2011,09,15,06,17,14.20
2011,09,15,06,18,14.20
2011,09,15,06,19,14.20
2011,09,15,06,20,14.20
2011,09,15,06,21,14.20
2011,09,15,06,22,14.10
2011,09,15,06,23,14.10
2011,09,15,06,24,14.20
2011,09,15,06,25,14.10
2011,09,15,06,26,14.10
2011,09,15,06,27,14.10
2011,09,15,06,28,14.10
2011,09,15,06,29,14.10
2011,09,15,06,30,14.10
2011,09,15,06,31,14.10
2011,09,15,06,32,14.10
2011,09,15,06,33,14.10
2011,09,15,06,34,14.10
2011,09,15,06,35,14.10
2011,09,15,06,36,14.10
2011,09,15,06,37,14.10
2011,09,15,06,38,14.10
2011,09,15,06,39,14.10
2011,09,15,06,40,14.10
2011,09,15,06,41,14.10
2011,09,15,06,42,14.10
2011,09,15,06,43,14.10
2011,09,15,06,44,14.10
2011,09,15,06,45,14.10
2011,09,15,06,46,14.10
2011,09,15,06,47,14.10
2011,09,15,06,48,14.10
2011,09,15,06,49,14.10
2011,09,15,06,50,14.10
2011,09,15,06,51,14.10
2011,09,15,06,52,14.10
2011,09,15,06,53,14.10
2011,09,15,06,54,14.10
2011,09,15,06,55,14.10
2011,09,15,06,56,14.00
2011,09,15,06,57,14.00
2011,09,15,06,58,14.00
2011,09,15,06,59,14.00
2011,09,15,07,00,14.00
2011,09,15,07,01,14.00
2011,09,15,07,02,14.00
2011,09,15,07,03,14.00
2011,09,15,07,04,13.90
2011,09,15,07,05,13.90
2011,09,15,07,06,13.90
2011,09,15,07,07,13.90
2011,09,15,07,08,13.90
2011,09,15,07,09,13.90
2011,09,15,07,10,13.90
2011,09,15,07,11,13.90
2011,09,15,07,12,13.90
2011,09,15,07,13,13.90
2011,09,15,07,14,13.90
2011,09,15,07,15,13.90
2011,09,15,07,16,13.90
2011,09,15,07,17,13.90
2011,09,15,07,18,13.90
2011,09,15,07,19,13.90
2011,09,15,07,20,13.90
2011,09,15,07,21,13.90
2011,09,15,07,22,13.90
2011,09,15,07,23,13.90
2011,09,15,07,24,13.80
2011,09,15,07,25,13.80
2011,09,15,07,26,13.80
2011,09,15,07,27,13.80
2011,09,15,07,28,13.80
2011,09,15,07,29,13.80
2011,09,15,07,30,13.80
2011,09,15,07,31,13.80
2011,09,15,07,32,13.80
2011,09,15,07,33,13.80
2011,09,15,07,34,13.80
2011,09,15,07,35,13.80
2011,09,15,07,36,13.80
2011,09,15,07,37,13.80
2011,09,15,07,38,13.80
2011,09,15,07,39,13.80
2011,09,15,07,40,13.80
2011,09,15,07,41,13.80
2011,09,15,07,42,13.80
2011,09,15,07,43,13.80
2011,09,15,07,44,13.80
2011,09,15,07,45,13.80
2011,09,15,07,46,13.80
2011,09,15,07,47,13.80
2011,09,15,07,48,13.80
2011,09,15,07,49,13.80
2011,09,15,07,50,13.80
2011,09,15,07,51,13.80
2011,09,15,07,52,13.80
2011,09,15,07,53,13.80
2011,09,15,07,54,13.80
2011,09,15,07,55,13.80
2011,09,15,07,56,13.80
2011,09,15,07,57,13.80
2011,09,15,07,58,13.80
2011,09,15,07,59,13.80
2011,09,15,08,00,13.80
2011,09,15,08,01,13.80
2011,09,15,08,02,13.70
2011,09,15,08,03,13.70
2011,09,15,08,04,13.70
2011,09,15,08,05,13.70
2011,09,15,08,06,13.70
2011,09,15,08,07,13.70
2011,09,15,08,08,13.70
2011,09,15,08,09,13.70
2011,09,15,08,10,13.70
2011,09,15,08,11,13.70
2011,09,15,08,12,13.70
2011,09,15,08,13,13.70
2011,09,15,08,14,13.70
2011,09,15,08,15,13.70
2011,09,15,08,16,13.70
2011,09,15,08,17,13.70
2011,09,15,08,18,13.70
2011,09,15,08,19,13.70
2011,09,15,08,20,13.80
2011,09,15,08,21,13.80
2011,09,15,08,22,13.80
2011,09,15,08,23,13.80
2011,09,15,08,24,13.80
2011,09,15,08,25,13.80
2011,09,15,08,26,13.80
2011,09,15,08,27,13.80
2011,09,15,08,28,13.80
2011,09,15,08,29,13.90
2011,09,15,08,30,13.90
2011,09,15,08,31,13.90
2011,09,15,08,32,13.90
2011,09,15,08,33,13.90
2011,09,15,08,34,13.90
2011,09,15,08,35,13.90
2011,09,15,08,36,13.90
2011,09,15,08,37,13.90
2011,09,15,08,38,13.90
2011,09,15,08,39,13.90
2011,09,15,08,40,14.00
2011,09,15,08,41,14.00
2011,09,15,08,42,14.00
2011,09,15,08,43,14.00
2011,09,15,08,44,14.00
2011,09,15,08,45,14.00
2011,09,15,08,46,14.00
2011,09,15,08,47,14.00
2011,09,15,08,48,14.00
2011,09,15,08,49,14.00
2011,09,15,08,50,14.00
2011,09,15,08,51,14.00
2011,09,15,08,52,14.00
2011,09,15,08,53,14.00
2011,09,15,08,54,14.00
2011,09,15,08,55,14.00
2011,09,15,08,56,14.00
2011,09,15,08,57,14.00
2011,09,15,08,58,14.00
2011,09,15,08,59,14.00
2011,09,15,09,00,14.00
2011,09,15,09,01,14.00
2011,09,15,09,02,14.00
2011,09,15,09,03,13.90
2011,09,15,09,04,14.00
2011,09,15,09,05,14.00
2011,09,15,09,06,14.00
2011,09,15,09,07,14.00
2011,09,15,09,08,14.10
2011,09,15,09,09,14.10
2011,09,15,09,10,14.10
2011,09,15,09,11,14.10
2011,09,15,09,12,14.10
2011,09,15,09,13,14.10
2011,09,15,09,14,14.10
2011,09,15,09,15,14.10
2011,09,15,09,16,14.20
2011,09,15,09,17,14.20
2011,09,15,09,18,14.20
2011,09,15,09,19,14.20
2011,09,15,09,20,14.20
2011,09,15,09,21,14.30
2011,09,15,09,22,14.30
2011,09,15,09,23,14.30
2011,09,15,09,24,14.30
2011,09,15,09,25,14.40
2011,09,15,09,26,14.40
2011,09,15,09,27,14.40
2011,09,15,09,28,14.50
2011,09,15,09,29,14.50
2011,09,15,09,30,14.50
2011,09,15,09,31,14.50
2011,09,15,09,32,14.60
2011,09,15,09,33,14.60
2011,09,15,09,34,14.60
2011,09,15,09,35,14.60
2011,09,15,09,36,14.60
2011,09,15,09,37,14.70
2011,09,15,09,38,14.70
2011,09,15,09,39,14.70
2011,09,15,09,40,14.80
2011,09,15,09,41,14.80
2011,09,15,09,42,14.80
2011,09,15,09,43,14.80
2011,09,15,09,44,14.90
2011,09,15,09,45,15.00
2011,09,15,09,46,15.00
2011,09,15,09,47,15.00
2011,09,15,09,48,15.10
2011,09,15,09,49,15.10
2011,09,15,09,50,15.10
2011,09,15,09,51,15.10
2011,09,15,09,52,15.10
2011,09,15,09,53,15.10
2011,09,15,09,54,15.10
2011,09,15,09,55,15.10
2011,09,15,09,56,15.10
2011,09,15,09,57,15.10
2011,09,15,09,58,15.20
2011,09,15,09,59,15.20
2011,09,15,10,00,15.20
2011,09,15,10,01,15.20
2011,09,15,10,02,15.20
2011,09,15,10,03,15.20
2011,09,15,10,04,15.20
2011,09,15,10,05,15.20
2011,09,15,10,06,15.20
2011,09,15,10,07,15.30
2011,09,15,10,08,15.30
2011,09,15,10,09,15.30
2011,09,15,10,10,15.30
2011,09,15,10,11,15.30
2011,09,15,10,12,15.40
2011,09,15,10,13,15.40
2011,09,15,10,14,15.40
2011,09,15,10,15,15.40
2011,09,15,10,16,15.40
2011,09,15,10,17,15.40
2011,09,15,10,18,15.40
2011,09,15,10,19,15.40
2011,09,15,10,20,15.40
2011,09,15,10,21,15.40
2011,09,15,10,22,15.40
2011,09,15,10,23,15.40
2011,09,15,10,24,15.40
2011,09,15,10,25,15.40
2011,09,15,10,26,15.40
2011,09,15,10,27,15.40
2011,09,15,10,28,15.50
2011,09,15,10,29,15.50
2011,09,15,10,30,15.50
2011,09,15,10,31,15.50
2011,09,15,10,32,15.50
2011,09,15,10,33,15.50
2011,09,15,10,34,15.60
2011,09,15,10,35,15.60
2011,09,15,10,36,15.50
2011,09,15,10,37,15.60
2011,09,15,10,38,15.60
2011,09,15,10,39,15.60
2011,09,15,10,40,15.60
2011,09,15,10,41,15.60
2011,09,15,10,42,15.60
2011,09,15,10,43,15.60
2011,09,15,10,44,15.60
2011,09,15,10,45,15.60
2011,09,15,10,46,15.60
2011,09,15,10,47,15.70
2011,09,15,10,48,15.70
2011,09,15,10,49,15.70
2011,09,15,10,50,15.60
2011,09,15,10,51,15.60
2011,09,15,10,52,15.60
2011,09,15,10,53,15.60
2011,09,15,10,54,15.60
2011,09,15,10,55,15.50
2011,09,15,10,56,15.50
2011,09,15,10,57,15.40
2011,09,15,10,58,15.40
2011,09,15,10,59,15.40
2011,09,15,11,00,15.40
2011,09,15,11,01,15.30
2011,09,15,11,02,15.30
2011,09,15,11,03,15.30
2011,09,15,11,04,15.30
2011,09,15,11,05,15.20
2011,09,15,11,06,15.20
2011,09,15,11,07,15.20
2011,09,15,11,08,15.20
2011,09,15,11,09,15.20
2011,09,15,11,10,15.20
2011,09,15,11,11,15.20
2011,09,15,11,12,15.20
2011,09,15,11,13,15.20
2011,09,15,11,14,15.20
2011,09,15,11,15,15.20
2011,09,15,11,16,15.20
2011,09,15,11,17,15.20
2011,09,15,11,18,15.20
2011,09,15,11,19,15.20
2011,09,15,11,20,15.20
2011,09,15,11,21,15.20
2011,09,15,11,22,15.20
2011,09,15,11,23,15.20
2011,09,15,11,24,15.20
2011,09,15,11,25,15.20
2011,09,15,11,26,15.20
2011,09,15,11,27,15.20
2011,09,15,11,28,15.20
2011,09,15,11,29,15.20
2011,09,15,11,30,15.20
2011,09,15,11,31,15.20
2011,09,15,11,32,15.20
2011,09,15,11,33,15.20
2011,09,15,11,34,15.20
2011,09,15,11,35,15.20
2011,09,15,11,36,15.20
2011,09,15,11,37,15.20
2011,09,15,11,38,15.20
2011,09,15,11,39,15.20
2011,09,15,11,40,15.20
2011,09,15,11,41,15.20
2011,09,15,11,42,15.20
2011,09,15,11,43,15.20
2011,09,15,11,44,15.20
2011,09,15,11,45,15.10
2011,09,15,11,46,15.10
2011,09,15,11,47,15.10
2011,09,15,11,48,15.10
2011,09,15,11,49,15.10
2011,09,15,11,50,15.20
2011,09,15,11,51,15.20
2011,09,15,11,52,15.20
2011,09,15,11,53,15.10
2011,09,15,11,54,15.10
2011,09,15,11,55,15.10
2011,09,15,11,56,15.10
2011,09,15,11,57,15.10
2011,09,15,11,58,15.10
2011,09,15,11,59,15.10
2011,09,15,12,00,15.10
2011,09,15,12,01,15.10
2011,09,15,12,02,15.10
2011,09,15,12,03,15.10
2011,09,15,12,04,15.10
2011,09,15,12,05,15.10
2011,09,15,12,06,15.10
2011,09,15,12,07,15.10
2011,09,15,12,08,15.10
2011,09,15,12,09,15.10
2011,09,15,12,10,15.10
2011,09,15,12,11,15.10
2011,09,15,12,12,15.10
2011,09,15,12,13,15.10
2011,09,15,12,14,15.10
2011,09,15,12,15,15.10
2011,09,15,12,16,15.10
2011,09,15,12,17,15.10
2011,09,15,12,18,15.10
2011,09,15,12,19,15.10
2011,09,15,12,20,15.10
2011,09,15,12,21,15.20
2011,09,15,12,22,15.20
2011,09,15,12,23,15.20
2011,09,15,12,24,15.20
2011,09,15,12,25,15.20
2011,09,15,12,26,15.10
2011,09,15,12,27,15.10
2011,09,15,12,28,15.10
2011,09,15,12,29,15.10
2011,09,15,12,30,15.10
2011,09,15,12,31,15.10
2011,09,15,12,32,15.10
2011,09,15,12,33,15.10
2011,09,15,12,34,15.10
2011,09,15,12,35,15.10
2011,09,15,12,36,15.10
2011,09,15,12,37,15.10
2011,09,15,12,38,15.10
2011,09,15,12,39,15.10
2011,09,15,12,40,15.10
2011,09,15,12,41,15.10
2011,09,15,12,42,15.10
2011,09,15,12,43,15.10
2011,09,15,12,44,15.10
2011,09,15,12,45,15.10
2011,09,15,12,46,15.10
2011,09,15,12,47,15.10
2011,09,15,12,48,15.10
2011,09,15,12,49,15.10
2011,09,15,12,50,15.10
2011,09,15,12,51,15.10
2011,09,15,12,52,15.10
2011,09,15,12,53,15.10
2011,09,15,12,54,15.10
2011,09,15,12,55,15.10
2011,09,15,12,56,15.10
2011,09,15,12,57,15.10
2011,09,15,12,58,15.10
2011,09,15,12,59,15.10
2011,09,15,13,00,15.10
2011,09,15,13,01,15.10
2011,09,15,13,02,15.10
2011,09,15,13,03,15.20
2011,09,15,13,04,15.20
2011,09,15,13,05,15.20
2011,09,15,13,06,15.20
2011,09,15,13,07,15.20
2011,09,15,13,08,15.20
2011,09,15,13,09,15.20
2011,09,15,13,10,15.20
2011,09,15,13,11,15.20
2011,09,15,13,12,15.20
2011,09,15,13,13,15.20
2011,09,15,13,14,15.20
2011,09,15,13,15,15.20
2011,09,15,13,16,15.20
2011,09,15,13,17,15.20
2011,09,15,13,18,15.20
2011,09,15,13,19,15.20
2011,09,15,13,20,15.20
2011,09,15,13,21,15.20
2011,09,15,13,22,15.20
2011,09,15,13,23,15.20
2011,09,15,13,24,15.20
2011,09,15,13,25,15.20
2011,09,15,13,26,15.20
2011,09,15,13,27,15.20
2011,09,15,13,28,15.20
2011,09,15,13,29,15.20
2011,09,15,13,30,15.20
2011,09,15,13,31,15.20
2011,09,15,13,32,15.30
2011,09,15,13,33,15.30
2011,09,15,13,34,15.30
2011,09,15,13,35,15.30
2011,09,15,13,36,15.30
2011,09,15,13,37,15.30
2011,09,15,13,38,15.30
2011,09,15,13,39,15.30
2011,09,15,13,40,15.30
2011,09,15,13,41,15.30
2011,09,15,13,42,15.40
2011,09,15,13,43,15.40
2011,09,15,13,44,15.40
2011,09,15,13,45,15.40
2011,09,15,13,46,15.40
2011,09,15,13,47,15.40
2011,09,15,13,48,15.50
2011,09,15,13,49,15.50
2011,09,15,13,50,15.60
2011,09,15,13,51,15.60
2011,09,15,13,52,15.60
2011,09,15,13,53,15.70
2011,09,15,13,54,15.70
2011,09,15,13,55,15.70
2011,09,15,13,56,15.70
2011,09,15,13,57,15.70
2011,09,15,13,58,15.70
2011,09,15,13,59,15.80
2011,09,15,14,00,15.80
2011,09,15,14,01,15.80
2011,09,15,14,02,15.80
2011,09,15,14,03,15.80
2011,09,15,14,04,15.80
2011,09,15,14,05,15.80
2011,09,15,14,06,15.80
2011,09,15,14,07,15.80
2011,09,15,14,08,15.90
2011,09,15,14,09,15.90
2011,09,15,14,10,15.90
2011,09,15,14,11,15.90
2011,09,15,14,12,15.90
2011,09,15,14,13,15.90
2011,09,15,14,14,15.90
2011,09,15,14,15,15.90
2011,09,15,14,16,15.90
2011,09,15,14,17,15.90
2011,09,15,14,18,15.90
2011,09,15,14,19,16.00
2011,09,15,14,20,16.00
2011,09,15,14,21,16.00
2011,09,15,14,22,16.00
2011,09,15,14,23,16.00
2011,09,15,14,24,16.10
2011,09,15,14,25,16.10
2011,09,15,14,26,16.10
2011,09,15,14,27,16.10
2011,09,15,14,28,16.10
2011,09,15,14,29,16.10
2011,09,15,14,30,16.20
2011,09,15,14,31,16.20
2011,09,15,14,32,16.20
2011,09,15,14,33,16.20
2011,09,15,14,34,16.20
2011,09,15,14,35,16.20
2011,09,15,14,36,16.30
2011,09,15,14,37,16.30
2011,09,15,14,38,16.30
2011,09,15,14,39,16.40
2011,09,15,14,40,16.40
2011,09,15,14,41,16.40
2011,09,15,14,42,16.50
2011,09,15,14,43,16.50
2011,09,15,14,44,16.60
2011,09,15,14,45,16.60
2011,09,15,14,46,16.60
2011,09,15,14,47,16.60
2011,09,15,14,48,16.60
2011,09,15,14,49,16.60
2011,09,15,14,50,16.60
2011,09,15,14,51,16.70
2011,09,15,14,52,16.60
2011,09,15,14,53,16.60
2011,09,15,14,54,16.60
2011,09,15,14,55,16.60
2011,09,15,14,56,16.60
2011,09,15,14,57,16.70
2011,09,15,14,58,16.70
2011,09,15,14,59,16.70
2011,09,15,15,00,16.70
2011,09,15,15,01,16.70
2011,09,15,15,02,16.80
2011,09,15,15,03,16.80
2011,09,15,15,04,16.90
2011,09,15,15,05,16.90
2011,09,15,15,06,16.90
2011,09,15,15,07,16.90
2011,09,15,15,08,16.90
2011,09,15,15,09,16.90
2011,09,15,15,10,16.90
2011,09,15,15,11,16.90
2011,09,15,15,12,16.90
2011,09,15,15,13,16.90
2011,09,15,15,14,16.90
2011,09,15,15,15,16.90
2011,09,15,15,16,16.90
2011,09,15,15,17,16.90
2011,09,15,15,18,16.90
2011,09,15,15,19,16.90
2011,09,15,15,20,16.90
2011,09,15,15,21,16.90
2011,09,15,15,22,16.90
2011,09,15,15,23,16.90
2011,09,15,15,24,16.90
2011,09,15,15,25,16.90
2011,09,15,15,26,16.90
2011,09,15,15,27,16.80
2011,09,15,15,28,16.80
2011,09,15,15,29,16.80
2011,09,15,15,30,16.80
2011,09,15,15,31,16.80
2011,09,15,15,32,16.80
2011,09,15,15,33,16.80
2011,09,15,15,34,16.80
2011,09,15,15,35,16.80
2011,09,15,15,36,16.80
2011,09,15,15,37,16.80
2011,09,15,15,38,16.80
2011,09,15,15,39,16.80
2011,09,15,15,40,16.90
2011,09,15,15,41,16.90
2011,09,15,15,42,16.90
2011,09,15,15,43,17.00
2011,09,15,15,44,17.00
2011,09,15,15,45,17.00
2011,09,15,15,46,17.00
2011,09,15,15,47,17.00
2011,09,15,15,48,17.10
2011,09,15,15,49,17.10
2011,09,15,15,50,17.10
2011,09,15,15,51,17.10
2011,09,15,15,52,17.20
2011,09,15,15,53,17.20
2011,09,15,15,54,17.20
2011,09,15,15,55,17.20
2011,09,15,15,56,17.20
2011,09,15,15,57,17.20
2011,09,15,15,58,17.20
2011,09,15,15,59,17.20
2011,09,15,16,00,17.20
2011,09,15,16,01,17.20
2011,09,15,16,02,17.20
2011,09,15,16,03,17.20
2011,09,15,16,04,17.20
2011,09,15,16,05,17.20
2011,09,15,16,06,17.20
2011,09,15,16,07,17.30
2011,09,15,16,08,17.40
2011,09,15,16,09,17.40
2011,09,15,16,10,17.50
2011,09,15,16,11,17.60
2011,09,15,16,12,17.70
2011,09,15,16,13,17.80
2011,09,15,16,14,17.80
2011,09,15,16,15,17.80
2011,09,15,16,16,17.80
2011,09,15,16,17,17.80
2011,09,15,16,18,17.80
2011,09,15,16,19,17.70
2011,09,15,16,20,17.70
2011,09,15,16,21,17.60
2011,09,15,16,22,17.70
2011,09,15,16,23,17.70
2011,09,15,16,24,17.70
2011,09,15,16,25,17.80
2011,09,15,16,26,17.80
2011,09,15,16,27,17.80
2011,09,15,16,28,17.80
2011,09,15,16,29,17.80
2011,09,15,16,30,17.80
2011,09,15,16,31,17.80
2011,09,15,16,32,17.80
2011,09,15,16,33,17.80
2011,09,15,16,34,17.90
2011,09,15,16,35,18.00
2011,09,15,16,36,18.00
2011,09,15,16,37,18.00
2011,09,15,16,38,18.00
2011,09,15,16,39,18.10
2011,09,15,16,40,18.10
2011,09,15,16,41,18.10
2011,09,15,16,42,18.10
2011,09,15,16,43,18.10
2011,09,15,16,44,18.10
2011,09,15,16,45,18.10
2011,09,15,16,46,18.10
2011,09,15,16,47,18.10
2011,09,15,16,48,18.10
2011,09,15,16,49,18.10
2011,09,15,16,50,18.10
2011,09,15,16,51,18.10
2011,09,15,16,52,18.20
2011,09,15,16,53,18.20
2011,09,15,16,54,18.20
2011,09,15,16,55,18.20
2011,09,15,16,56,18.20
2011,09,15,16,57,18.20
2011,09,15,16,58,18.20
2011,09,15,16,59,18.20
2011,09,15,17,00,18.20
2011,09,15,17,01,18.20
2011,09,15,17,02,18.20
2011,09,15,17,03,18.20
2011,09,15,17,04,18.20
2011,09,15,17,05,18.20
2011,09,15,17,06,18.20
2011,09,15,17,07,18.20
2011,09,15,17,08,18.20
2011,09,15,17,09,18.20
2011,09,15,17,10,18.20
2011,09,15,17,11,18.20
2011,09,15,17,12,18.20
2011,09,15,17,13,18.20
2011,09,15,17,14,18.20
2011,09,15,17,15,18.20
2011,09,15,17,16,18.20
2011,09,15,17,17,18.20
2011,09,15,17,18,18.20
2011,09,15,17,19,18.20